| time (UTC) | temp C | wind direction | speed KPH | gust KPH | rain 1hr cm | rain 24hr cm | rain mn cm | humidity % | barometer mb |
| 20260507154508 | 26 | 109 | 0.0 | 3.2 | 0.00 | 0.00 | 0.00 | 27 | 1009.5 |
| 20260507153004 | 25 | 60 | 0.0 | 1.6 | 0.00 | 0.00 | 0.00 | 28 | 1009.6 |
| 20260507151501 | 25 | 13 | 0.0 | 3.2 | 0.00 | 0.00 | 0.00 | 29 | 1009.5 |
| 20260507150100 | 24 | 76 | 0.0 | 3.2 | 0.00 | 0.00 | 0.00 | 28 | 1009.5 |
| 20260507144558 | 23 | 311 | 0.0 | 1.6 | 0.00 | 0.00 | 0.00 | 29 | 1009.4 |
| 20260507143101 | 23 | 311 | 0.0 | 1.6 | 0.00 | 0.00 | 0.00 | 32 | 1009.5 |
| 20260507141555 | 21 | 311 | 0.0 | 1.6 | 0.00 | 0.00 | 0.00 | 35 | 1009.4 |
| 20260507140032 | 20 | 309 | 0.0 | 0.0 | 0.00 | 0.00 | 0.00 | 39 | 1009.4 |
| 20260507134532 | 17 | 309 | 0.0 | 1.6 | 0.00 | 0.00 | 0.00 | 44 | 1009.3 |
| 20260507133012 | 16 | 308 | 0.0 | 0.0 | 0.00 | 0.00 | 0.00 | 47 | 1009.1 |
| 20260507131511 | 15 | 307 | 0.0 | 1.6 | 0.00 | 0.00 | 0.00 | 45 | 1009.0 |
| 20260507130106 | 15 | 307 | 0.0 | 0.0 | 0.00 | 0.00 | 0.00 | 48 | 1009.0 |
| 20260507124551 | 15 | 307 | 0.0 | 0.0 | 0.00 | 0.00 | 0.00 | 47 | 1008.9 |
| 20260507123040 | 15 | 308 | 0.0 | 1.6 | 0.00 | 0.00 | 0.00 | 47 | 1008.9 |
| 20260507121536 | 15 | 308 | 0.0 | 0.0 | 0.00 | 0.00 | 0.00 | 44 | 1009.0 |
| 20260507120044 | 16 | 308 | 0.0 | 0.0 | 0.00 | 0.00 | 0.00 | 46 | 1008.9 |
| 20260507114601 | 15 | 308 | 0.0 | 1.6 | 0.00 | 0.00 | 0.00 | 49 | 1008.9 |
| 20260507113031 | 15 | 307 | 0.0 | 0.0 | 0.00 | 0.00 | 0.00 | 52 | 1008.7 |
| 20260507111534 | 16 | 308 | 0.0 | 0.0 | 0.00 | 0.00 | 0.00 | 49 | 1008.8 |
| 20260507110028 | 16 | 307 | 0.0 | 0.0 | 0.00 | 0.00 | 0.00 | 48 | 1008.8 |
| 20260507104526 | 16 | 308 | 0.0 | 0.0 | 0.00 | 0.00 | 0.00 | 47 | 1008.8 |
| 20260507103009 | 16 | 308 | 0.0 | 0.0 | 0.00 | 0.00 | 0.00 | 49 | 1008.9 |
| 20260507101512 | 16 | 307 | 0.0 | 0.0 | 0.00 | 0.00 | 0.00 | 48 | 1009.1 |
| 20260507100104 | 17 | 307 | 0.0 | 0.0 | 0.00 | 0.00 | 0.00 | 42 | 1009.2 |
| 20260507094544 | 17 | 307 | 0.0 | 0.0 | 0.00 | 0.00 | 0.00 | 44 | 1009.3 |
| 20260507093048 | 16 | 307 | 0.0 | 0.0 | 0.00 | 0.00 | 0.00 | 44 | 1009.3 |
| 20260507091530 | 16 | 307 | 0.0 | 0.0 | 0.00 | 0.00 | 0.00 | 44 | 1009.4 |
| 20260507090029 | 17 | 308 | 0.0 | 0.0 | 0.00 | 0.00 | 0.00 | 43 | 1009.3 |
| 20260507084504 | 17 | 307 | 0.0 | 0.0 | 0.00 | 0.00 | 0.00 | 41 | 1009.3 |
| 20260507083004 | 16 | 307 | 0.0 | 0.0 | 0.00 | 0.00 | 0.00 | 45 | 1009.3 |
| 20260507081546 | 17 | 308 | 0.0 | 0.0 | 0.00 | 0.00 | 0.00 | 47 | 1009.4 |
| 20260507080045 | 17 | 307 | 0.0 | 0.0 | 0.00 | 0.00 | 0.00 | 46 | 1009.6 |
| 20260507074522 | 17 | 308 | 0.0 | 0.0 | 0.00 | 0.00 | 0.00 | 45 | 1009.6 |
| 20260507073018 | 18 | 307 | 0.0 | 0.0 | 0.00 | 0.00 | 0.00 | 43 | 1009.7 |
| 20260507071602 | 18 | 308 | 0.0 | 0.0 | 0.00 | 0.00 | 0.00 | 45 | 1009.6 |
| 20260507070058 | 18 | 307 | 0.0 | 0.0 | 0.00 | 0.00 | 0.00 | 45 | 1009.6 |
| 20260507064539 | 18 | 307 | 0.0 | 0.0 | 0.00 | 0.00 | 0.00 | 43 | 1009.5 |
| 20260507063038 | 18 | 308 | 0.0 | 0.0 | 0.00 | 0.00 | 0.00 | 41 | 1009.4 |
| 20260507061521 | 19 | 307 | 0.0 | 0.0 | 0.00 | 0.00 | 0.00 | 42 | 1009.4 |
| 20260507060020 | 18 | 307 | 0.0 | 0.0 | 0.00 | 0.00 | 0.00 | 40 | 1009.4 |
| 20260507054506 | 19 | 308 | 0.0 | 0.0 | 0.00 | 0.00 | 0.00 | 36 | 1009.5 |
| 20260507053002 | 19 | 307 | 0.0 | 0.0 | 0.00 | 0.00 | 0.00 | 36 | 1009.4 |
| 20260507051544 | 20 | 307 | 0.0 | 0.0 | 0.00 | 0.00 | 0.00 | 36 | 1009.4 |
| 20260507050043 | 20 | 307 | 0.0 | 0.0 | 0.00 | 0.00 | 0.00 | 33 | 1009.3 |
| 20260507044526 | 20 | 308 | 0.0 | 0.0 | 0.00 | 0.00 | 0.00 | 37 | 1009.2 |
| 20260507043026 | 20 | 307 | 0.0 | 0.0 | 0.00 | 0.00 | 0.00 | 38 | 1009.1 |
| 20260507041509 | 21 | 307 | 0.0 | 0.0 | 0.00 | 0.00 | 0.00 | 33 | 1009.0 |
| 20260507040010 | 21 | 307 | 0.0 | 0.0 | 0.00 | 0.00 | 0.00 | 30 | 1008.8 |
| 20260507034555 | 22 | 308 | 0.0 | 0.0 | 0.00 | 0.00 | 0.00 | 29 | 1008.6 |
| 20260507033053 | 22 | 307 | 0.0 | 0.0 | 0.00 | 0.00 | 0.00 | 27 | 1008.5 |
| 20260507031531 | 23 | 307 | 0.0 | 0.0 | 0.00 | 0.00 | 0.00 | 26 | 1008.3 |
| 20260507030031 | 24 | 308 | 0.0 | 0.0 | 0.00 | 0.00 | 0.00 | 24 | 1008.1 |
| 20260507024514 | 25 | 309 | 0.0 | 0.0 | 0.00 | 0.00 | 0.00 | 22 | 1008.0 |
| 20260507023013 | 25 | 309 | 0.0 | 1.6 | 0.00 | 0.00 | 0.00 | 22 | 1007.8 |
| 20260507021555 | 26 | 309 | 0.0 | 1.6 | 0.00 | 0.00 | 0.00 | 20 | 1007.6 |
| 20260507020109 | 27 | 215 | 0.0 | 4.8 | 0.00 | 0.00 | 0.00 | 18 | 1007.6 |
| 20260507014536 | 28 | 263 | 1.6 | 6.4 | 0.00 | 0.00 | 0.00 | 17 | 1007.5 |
| 20260507013047 | 29 | 321 | 0.0 | 3.2 | 0.00 | 0.00 | 0.00 | 17 | 1007.5 |
| 20260507011519 | 30 | 205 | 0.0 | 3.2 | 0.00 | 0.00 | 0.00 | 16 | 1007.6 |
| 20260507010024 | 30 | 188 | 0.0 | 3.2 | 0.00 | 0.00 | 0.00 | 17 | 1007.6 |
| 20260507004504 | 30 | 271 | 1.6 | 4.8 | 0.00 | 0.00 | 0.00 | 16 | 1007.6 |
| 20260507003000 | 29 | 44 | 1.6 | 6.4 | 0.00 | 0.00 | 0.00 | 17 | 1007.6 |
| 20260507001600 | 29 | 274 | 0.0 | 6.4 | 0.00 | 0.00 | 0.00 | 17 | 1007.5 |
| 20260506234556 | 30 | 333 | 0.0 | 4.8 | 0.00 | 0.00 | 0.00 | 18 | 1007.6 |
| 20260506233109 | 30 | 277 | 0.0 | 3.2 | 0.00 | 0.00 | 0.00 | 18 | 1007.8 |
| 20260506231557 | 29 | 330 | 0.0 | 3.2 | 0.00 | 0.00 | 0.00 | 17 | 1007.9 |
| 20260506230052 | 29 | 259 | 0.0 | 6.4 | 0.00 | 0.00 | 0.00 | 18 | 1008.2 |
| 20260506224533 | 28 | 260 | 1.6 | 8.0 | 0.00 | 0.00 | 0.00 | 18 | 1008.3 |
| 20260506223036 | 28 | 37 | 0.0 | 8.0 | 0.00 | 0.00 | 0.00 | 18 | 1008.5 |
| 20260506221509 | 28 | 142 | 1.6 | 8.0 | 0.00 | 0.00 | 0.00 | 17 | 1008.7 |
| 20260506220008 | 28 | 255 | 1.6 | 9.7 | 0.00 | 0.00 | 0.00 | 19 | 1008.8 |
| 20260506214554 | 28 | 234 | 1.6 | 8.0 | 0.00 | 0.00 | 0.00 | 18 | 1009.1 |
| 20260506213109 | 29 | 116 | 1.6 | 8.0 | 0.00 | 0.00 | 0.00 | 20 | 1009.3 |
| 20260506211530 | 28 | 54 | 0.0 | 6.4 | 0.00 | 0.00 | 0.00 | 19 | 1009.6 |
| 20260506210028 | 28 | 49 | 1.6 | 6.4 | 0.00 | 0.00 | 0.00 | 20 | 1009.9 |
| 20260506204509 | 28 | 304 | 1.6 | 6.4 | 0.00 | 0.00 | 0.00 | 20 | 1010.0 |
| 20260506203007 | 28 | 255 | 1.6 | 4.8 | 0.00 | 0.00 | 0.00 | 21 | 1010.1 |
| 20260506201547 | 28 | 165 | 1.6 | 4.8 | 0.00 | 0.00 | 0.00 | 20 | 1010.3 |
| 20260506200047 | 27 | 44 | 1.6 | 4.8 | 0.00 | 0.00 | 0.00 | 21 | 1010.5 |
| 20260506194528 | 27 | 45 | 0.0 | 4.8 | 0.00 | 0.00 | 0.00 | 24 | 1010.5 |
| 20260506193027 | 27 | 145 | 0.0 | 8.0 | 0.00 | 0.00 | 0.00 | 23 | 1010.7 |
| 20260506191508 | 26 | 298 | 1.6 | 6.4 | 0.00 | 0.00 | 0.00 | 24 | 1011.0 |
| 20260506190013 | 27 | 320 | 1.6 | 4.8 | 0.00 | 0.00 | 0.00 | 23 | 1011.1 |
| 20260506184554 | 26 | 115 | 0.0 | 6.4 | 0.00 | 0.00 | 0.00 | 25 | 1011.3 |
| 20260506183057 | 26 | 325 | 0.0 | 4.8 | 0.00 | 0.00 | 0.00 | 28 | 1011.6 |
| 20260506181615 | 25 | 105 | 0.0 | 4.8 | 0.00 | 0.00 | 0.00 | 25 | 1011.8 |
| 20260506180048 | 25 | 120 | 1.6 | 8.0 | 0.00 | 0.00 | 0.00 | 25 | 1011.9 |
| 20260506174546 | 26 | 288 | 1.6 | 6.4 | 0.00 | 0.00 | 0.00 | 27 | 1012.0 |
| 20260506173056 | 25 | 345 | 0.0 | 4.8 | 0.00 | 0.00 | 0.00 | 28 | 1012.0 |
| 20260506171541 | 25 | 64 | 0.0 | 6.4 | 0.00 | 0.00 | 0.00 | 29 | 1012.0 |
| 20260506170040 | 23 | 345 | 0.0 | 4.8 | 0.00 | 0.00 | 0.00 | 31 | 1011.9 |
| 20260506164539 | 23 | 293 | 1.6 | 3.2 | 0.00 | 0.00 | 0.00 | 31 | 1012.0 |
| 20260506163038 | 23 | 272 | 0.0 | 4.8 | 0.00 | 0.00 | 0.00 | 34 | 1012.0 |
| 20260506161516 | 23 | 136 | 0.0 | 3.2 | 0.00 | 0.00 | 0.00 | 31 | 1011.9 |
| 20260506160013 | 22 | 90 | 1.6 | 3.2 | 0.00 | 0.00 | 0.00 | 34 | 1012.0 |